Theta_e
358 361 360 358 358 359 361 360 357 355 353 352 352 351 350 350 348 348 349 349 350 353 355 355 354 355 354 352 352 353 355 356 356 358 360 361 361 359 360 364 364 362 361 360 359 359 361 362 360 359 358 356 354 352 350 350 350 350 352 352 352 353 355 357 358 359 357 354 354 353 353 354 354 358 360 357 357 357 356 357 358 358 361 362 361
358 359 359 358 358 358 359 360 359 355 353 352 352 351 351 351 349 348 348 349 350 350 353 354 353 354 353 352 352 352 354 356 355 356 359 360 361 359 359 362 363 362 360 360 360 360 362 363 362 361 360 358 357 354 351 349 349 349 350 351 351 352 353 356 358 359 359 357 356 355 354 355 356 358 359 358 357 358 358 358 356 355 355 359 362
358 359 360 359 359 359 358 358 357 356 352 351 350 350 350 351 351 350 348 347 349 350 351 351 352 353 353 352 352 353 354 356 355 355 356 358 360 358 356 357 359 360 360 359 359 359 360 362 361 360 360 358 358 356 352 350 349 348 348 349 350 351 352 355 357 360 360 358 357 357 355 356 358 359 358 358 358 359 361 360 356 356 353 355 361
356 359 361 360 359 360 358 357 356 355 352 349 348 347 347 348 350 351 348 345 346 349 350 350 350 353 354 353 353 354 354 355 355 354 354 355 358 357 354 354 356 358 357 357 357 357 358 359 359 358 358 358 358 357 354 353 351 350 350 350 351 353 354 355 357 360 361 360 360 359 359 359 360 359 358 358 358 359 361 361 359 359 356 353 358
353 357 358 360 359 359 359 357 355 354 353 350 348 346 344 345 347 349 349 345 343 346 349 350 350 353 355 355 354 355 355 355 355 354 352 353 354 354 352 352 353 354 354 354 355 356 356 357 357 357 357 358 358 357 356 354 354 353 352 353 353 355 356 357 358 360 362 363 364 363 363 362 360 360 360 361 360 357 357 360 360 362 362 358 357
353 354 356 357 358 358 359 357 355 354 353 350 348 347 345 344 345 347 348 346 344 343 347 349 350 351 355 356 355 356 356 355 355 354 352 350 351 351 350 351 352 353 353 353 353 354 354 355 356 357 357 357 357 356 356 356 356 355 354 354 355 355 356 359 360 362 363 364 364 363 362 361 360 360 360 361 362 358 354 355 356 360 365 363 359
352 352 354 354 355 357 357 357 356 355 354 353 350 348 347 345 344 344 346 346 345 343 344 348 350 350 353 356 355 355 356 356 355 355 353 349 348 349 349 349 350 352 352 352 351 351 352 353 354 355 356 357 357 356 356 357 357 356 356 357 357 357 357 359 361 362 363 363 363 363 362 361 360 360 359 360 362 362 360 358 358 360 363 364 363
353 352 353 354 354 356 356 357 357 356 355 354 352 350 349 347 345 344 345 345 345 344 343 345 349 350 352 354 354 353 354 356 356 356 355 351 347 347 348 348 348 348 350 351 350 349 348 349 351 352 354 356 357 357 356 356 357 357 357 357 358 358 358 358 358 360 361 361 362 362 360 360 359 359 358 357 358 362 363 361 362 362 360 362 364
356 355 353 353 353 354 356 356 356 357 357 356 355 353 352 350 348 346 346 346 346 345 343 343 346 349 351 352 352 350 350 352 354 355 357 354 349 346 346 348 348 347 347 348 348 348 347 347 346 347 349 352 355 356 355 354 355 356 357 357 358 359 360 360 359 358 359 360 361 361 360 359 359 358 358 357 357 360 360 359 359 359 358 359 361
355 357 356 356 355 355 356 356 356 356 357 357 357 357 355 353 351 349 348 347 347 347 346 344 344 347 350 351 351 348 346 346 350 352 355 355 352 347 345 346 348 348 348 347 347 347 346 346 344 343 345 347 351 354 354 354 354 354 357 358 359 360 361 361 360 359 359 360 360 360 359 358 357 356 356 355 354 353 353 356 357 358 359 360 360
351 355 356 357 356 355 354 356 357 357 357 358 359 359 358 357 354 353 352 350 350 350 350 348 346 346 347 349 349 348 344 343 344 348 351 353 352 350 347 346 347 349 350 350 349 347 345 344 344 343 344 345 347 350 351 352 351 350 350 351 355 359 361 362 362 360 358 358 358 359 358 356 354 354 352 350 347 345 346 352 356 358 359 360 359
350 353 354 354 353 353 352 352 354 354 355 357 359 359 360 360 357 355 354 354 353 353 353 353 351 349 347 346 347 348 345 343 342 344 347 349 349 348 347 346 346 348 350 351 351 349 347 344 342 341 342 344 346 348 349 349 347 343 341 339 342 348 355 360 363 363 361 360 359 358 357 356 354 354 352 350 348 345 346 350 354 356 357 358 358
348 350 352 351 350 351 350 351 354 355 355 357 358 358 360 361 359 356 355 356 356 355 355 355 354 353 352 349 348 347 346 346 345 343 345 346 345 346 345 344 344 344 346 349 350 350 349 347 345 343 341 341 345 349 352 352 349 344 338 335 336 339 344 350 354 357 359 362 362 361 360 358 357 356 355 354 352 351 351 351 352 354 355 356 357
345 345 346 348 349 349 349 352 354 356 356 356 356 356 357 357 357 357 356 355 356 357 357 356 356 356 356 355 353 350 349 348 348 347 346 347 346 346 346 345 344 342 343 345 348 350 351 351 351 349 345 342 343 348 353 357 358 356 349 342 336 335 338 341 344 347 349 352 356 358 359 360 361 361 360 359 358 358 357 354 353 353 355 356 357
342 340 341 343 346 347 349 352 354 355 355 352 352 354 355 354 354 355 354 353 355 357 358 358 358 357 358 357 356 354 352 350 350 350 350 350 349 348 348 349 349 347 347 346 346 348 351 353 355 355 353 350 347 348 352 357 362 363 362 356 348 342 340 339 339 340 342 343 345 346 348 351 355 358 360 360 360 360 359 358 358 358 359 359 358
339 339 339 340 342 343 346 349 351 352 353 351 351 353 355 354 353 354 353 353 354 355 355 358 359 358 358 358 357 356 354 352 352 351 351 351 351 350 349 351 352 352 352 350 349 349 350 353 355 357 358 357 354 351 351 354 360 363 365 365 361 357 354 349 344 342 341 342 342 341 340 342 346 350 352 355 358 359 360 360 360 362 363 362 360
335 337 338 338 339 341 343 345 347 350 351 352 352 353 352 352 353 354 354 355 355 354 354 356 358 358 358 358 358 358 357 355 354 352 352 351 351 350 350 351 353 354 354 353 353 352 352 352 354 356 358 359 359 357 354 354 357 360 361 362 361 360 359 356 354 352 349 347 346 344 341 341 342 345 348 351 353 355 359 361 361 360 360 361 360
331 333 335 335 337 339 341 343 344 347 349 350 351 351 352 352 353 354 354 354 355 355 355 356 356 357 358 358 358 358 358 358 356 355 353 352 351 350 351 352 354 354 355 355 355 354 354 353 353 354 357 359 359 359 358 356 357 359 359 359 359 358 357 355 354 355 354 354 352 351 349 347 345 345 347 350 352 353 356 359 358 356 355 356 356
331 331 332 333 335 337 339 341 342 344 346 348 348 350 351 352 352 354 354 355 355 356 356 357 357 358 357 357 358 359 359 359 358 357 356 354 353 351 351 353 354 354 355 356 356 356 356 354 353 353 354 357 358 359 359 358 358 359 359 358 357 357 355 355 354 353 356 357 356 356 355 354 352 349 347 347 350 352 355 356 356 355 355 354 353
330 331 332 332 333 335 337 339 341 342 344 345 347 349 351 351 353 355 356 355 355 356 357 358 359 358 356 357 358 358 359 359 358 358 357 356 355 353 352 354 355 355 356 357 357 358 358 357 356 354 353 354 355 357 359 359 359 360 360 360 358 356 354 354 354 353 354 357 359 359 359 357 357 356 353 351 350 350 351 353 354 355 356 356 354
326 328 330 332 333 334 335 336 337 340 343 345 346 348 349 350 352 354 354 353 353 354 355 357 358 358 358 359 359 357 358 358 358 359 358 358 357 355 354 354 355 356 357 358 358 358 359 359 359 358 356 355 354 355 356 357 358 359 360 360 360 357 356 356 357 357 356 355 357 359 360 360 360 360 359 358 357 354 351 350 349 349 352 355 355
323 326 328 330 332 334 335 335 336 338 340 343 345 346 347 349 350 351 352 352 352 353 356 357 358 357 358 359 358 358 357 357 357 357 358 358 358 357 355 355 355 356 357 358 359 359 359 359 359 359 359 358 357 356 355 355 355 356 357 358 358 357 357 357 359 361 361 359 357 356 357 357 358 359 359 358 359 358 356 354 351 348 348 350 353
323 325 326 327 330 331 333 334 336 336 337 338 341 344 345 347 349 350 351 352 352 353 356 357 357 357 358 358 358 358 358 358 357 357 357 358 358 357 357 356 355 355 356 358 359 360 359 360 360 360 360 359 359 359 358 357 356 355 355 355 355 355 356 356 357 359 361 361 361 359 358 357 356 356 356 356 356 355 354 356 356 355 351 349 350
324 324 325 326 327 328 329 332 334 336 336 337 339 342 343 346 349 350 352 353 353 353 355 358 358 357 358 359 358 359 359 357 357 357 357 358 358 357 357 357 356 356 356 356 357 359 359 360 359 360 360 359 359 359 359 358 358 357 356 355 354 354 354 354 356 357 358 360 360 361 361 360 359 358 357 356 356 354 352 352 355 357 356 354 353
325 326 326 326 326 326 327 329 331 333 334 336 339 340 342 345 348 350 352 354 355 355 356 358 358 358 358 358 357 358 357 356 356 356 356 357 358 358 357 357 356 356 355 356 356 357 357 358 358 359 360 360 359 359 359 358 358 357 357 356 355 354 353 353 355 356 357 358 359 360 360 359 359 359 358 358 358 357 356 354 354 356 357 357 358
325 325 326 327 327 327 327 327 327 328 330 333 336 338 340 343 346 349 351 352 354 355 356 356 357 357 357 358 356 355 354 353 354 356 357 358 358 357 357 356 356 356 355 356 356 356 356 356 356 357 357 358 359 359 359 359 358 357 357 356 356 355 353 353 354 355 357 357 358 359 359 358 359 359 358 359 360 360 360 359 357 357 356 357 359
324 325 326 327 327 327 327 326 325 325 326 328 330 334 338 342 345 348 350 351 352 354 354 355 356 356 356 357 356 354 353 354 354 356 357 356 357 357 358 357 356 355 354 354 354 354 354 354 354 355 355 356 356 356 357 357 357 356 356 356 355 355 354 353 355 356 357 358 358 358 358 358 359 359 359 359 360 360 361 361 360 360 358 358 359
324 325 326 326 327 327 327 327 327 326 326 326 329 334 337 339 341 344 346 348 350 351 351 352 354 355 355 356 356 354 352 354 355 356 355 355 356 357 358 357 355 353 352 351 352 352 351 351 352 353 354 354 355 355 355 356 357 356 356 355 355 354 354 354 354 355 357 358 358 358 359 359 359 359 359 359 360 361 362 362 361 361 360 360 360
324 325 325 325 326 326 326 327 327 327 326 327 331 335 336 336 337 338 340 342 343 344 343 344 347 349 350 352 355 356 356 356 358 357 356 355 355 355 355 355 354 353 352 351 350 348 348 349 351 354 355 355 356 356 356 357 358 357 357 357 356 355 355 354 354 355 356 358 359 360 360 360 360 360 359 360 360 361 362 363 363 363 362 361 360
323 323 324 324 324 324 325 325 325 327 327 327 328 330 332 334 335 335 336 335 334 335 335 336 338 341 343 344 348 350 352 353 355 355 355 355 355 354 353 352 352 353 353 353 350 346 346 349 352 354 356 357 357 357 358 359 359 359 360 359 358 357 357 356 356 356 356 357 358 359 360 360 361 360 360 360 360 360 361 362 363 364 364 364 362
322 323 323 323 323 323 324 324 325 326 327 327 326 328 330 332 333 334 334 333 333 335 336 337 339 340 340 342 343 344 346 347 347 348 349 350 350 350 350 350 352 353 353 354 353 349 346 348 350 353 355 357 358 359 359 359 360 361 360 358 358 358 357 358 357 357 357 357 357 358 359 359 360 360 360 360 360 361 361 361 362 363 364 364 363
321 321 322 322 322 323 323 324 325 326 326 327 328 329 330 331 333 333 334 335 336 338 339 340 340 339 339 340 341 342 344 345 346 346 346 346 347 349 350 351 353 355 354 355 355 352 348 349 351 354 356 357 358 359 359 359 360 360 358 356 356 358 358 357 358 358 358 358 358 358 359 359 360 360 360 360 360 360 360 360 361 361 362 362 362
319 320 321 321 322 322 323 324 324 325 327 328 329 330 330 331 332 333 334 335 337 337 338 339 338 338 337 337 338 339 341 343 344 345 345 346 348 350 351 353 354 355 356 356 354 352 350 351 353 356 357 358 357 358 358 359 360 360 359 358 357 357 358 358 358 358 358 358 358 359 359 359 360 360 360 360 359 360 360 360 359 359 359 359 359
318 319 320 321 322 322 323 324 325 326 327 328 329 329 330 330 331 332 333 335 336 336 336 337 337 337 336 337 337 338 340 341 342 343 343 345 348 349 350 351 353 356 356 354 351 350 350 352 354 355 356 357 357 356 357 358 360 361 361 361 359 358 358 359 359 359 359 359 359 359 359 359 360 360 360 360 360 360 360 360 360 359 358 358 358
317 318 318 319 320 321 322 322 323 324 325 326 327 327 328 330 331 332 333 334 335 335 335 335 336 337 337 337 338 338 339 341 342 342 343 344 346 347 346 347 350 353 354 352 349 349 350 352 352 353 354 355 355 356 357 358 359 360 361 362 362 360 360 360 360 361 361 361 361 360 360 360 360 360 361 361 360 360 360 360 359 359 359 359 359
316 316 317 318 319 319 320 321 322 323 324 324 325 326 327 329 330 331 332 332 333 333 334 335 336 337 338 338 339 339 340 342 344 345 344 344 345 345 343 342 345 349 353 352 350 349 350 352 352 354 356 355 355 356 357 358 359 360 361 361 362 361 361 361 360 361 362 362 361 361 361 361 361 360 360 361 361 360 360 360 359 359 359 359 359
315 315 316 317 318 319 320 321 322 323 323 324 325 325 326 327 328 329 330 331 332 332 333 335 336 337 338 339 340 341 343 345 346 347 346 346 347 347 346 345 346 347 349 350 349 348 349 352 353 356 358 359 358 358 358 359 359 360 361 361 362 361 361 361 360 361 362 363 362 363 362 362 362 361 361 361 361 360 360 360 360 360 359 358 359
315 315 316 316 316 317 318 320 321 322 323 324 324 324 325 326 326 327 329 330 331 332 333 334 335 336 338 340 341 343 345 347 347 348 348 348 348 348 347 348 350 350 349 348 347 347 348 351 354 357 359 360 361 360 361 361 362 362 363 363 361 359 360 361 360 360 361 362 363 363 363 364 364 363 362 362 362 361 360 359 359 358 358 358 358
315 315 315 315 315 316 316 317 319 320 321 322 323 324 324 325 326 327 329 330 331 332 333 334 335 336 337 339 340 341 343 344 346 347 347 347 348 348 347 348 351 353 353 352 351 350 351 353 356 359 359 360 361 361 361 362 363 364 364 361 355 355 359 359 360 361 361 362 363 363 363 364 364 364 363 363 362 362 361 359 359 358 358 359 359
315 315 315 315 315 316 316 317 317 318 319 320 321 322 323 323 324 326 327 329 330 331 332 333 334 335 336 337 338 338 339 340 340 341 342 343 344 345 348 350 351 352 353 354 355 356 356 358 360 360 360 361 360 359 359 360 362 364 364 357 353 357 359 358 358 362 363 363 363 363 363 364 364 364 364 363 362 362 362 360 360 359 358 358 360
315 314 314 315 315 315 316 317 318 319 320 320 321 322 322 323 324 325 327 328 329 330 330 332 332 333 334 334 334 334 334 336 336 337 339 340 342 343 345 349 351 352 353 353 355 357 358 359 361 361 360 359 358 356 355 355 357 361 361 354 352 359 360 357 358 362 364 364 364 363 363 364 363 363 364 363 362 362 362 361 361 360 359 359 359
315 314 314 315 315 315 316 317 318 320 321 322 322 322 323 323 324 325 326 327 328 329 329 330 330 331 332 332 332 332 332 333 334 335 337 338 340 342 343 345 348 351 352 353 355 357 357 358 359 359 357 355 353 353 353 353 356 360 360 353 351 355 357 358 360 363 364 363 364 364 363 364 362 362 363 363 363 362 362 362 361 361 360 359 358
315 315 315 315 315 316 317 319 320 320 321 322 322 323 323 324 325 326 327 328 328 329 329 328 329 330 331 331 331 331 332 333 334 335 336 338 339 341 342 343 345 348 349 351 353 354 355 354 354 354 354 352 349 348 349 351 353 355 354 351 350 353 355 358 360 360 358 359 361 363 363 363 362 361 361 362 362 362 362 362 362 361 360 359 358
315 316 316 316 317 317 317 318 320 320 321 321 322 322 323 324 325 326 326 327 327 328 328 327 328 329 330 330 331 331 332 333 334 335 336 338 339 339 340 341 342 343 345 347 348 350 351 350 349 349 350 350 349 348 347 348 349 350 349 349 350 352 352 354 355 354 353 355 358 360 361 361 361 360 360 360 362 362 362 362 362 361 360 358 357
314 316 316 316 317 318 318 317 318 319 320 321 322 322 322 323 324 324 324 325 326 326 326 327 327 327 328 329 329 330 330 330 331 331 332 333 333 333 333 333 334 335 338 340 342 344 346 345 345 344 344 345 347 348 347 348 348 348 348 349 350 352 352 352 352 352 353 355 357 359 360 360 360 359 360 360 361 361 362 361 361 360 359 357 356
313 314 315 315 317 318 318 318 318 318 318 320 321 322 322 322 323 323 324 325 325 325 325 326 326 326 327 327 327 327 326 325 324 324 324 324 324 324 325 326 327 328 331 333 335 336 338 338 338 339 339 340 341 342 344 345 346 346 346 346 347 348 349 350 351 351 351 352 353 355 356 357 357 357 358 358 358 358 359 359 359 358 357 356 355
311 312 313 314 315 316 317 318 318 318 318 318 320 322 322 322 322 322 323 323 323 324 324 324 324 324 324 324 324 323 322 320 319 318 317 317 316 317 318 321 322 323 325 327 328 329 330 330 331 332 333 334 334 335 337 338 339 340 341 341 341 343 346 348 349 349 348 348 347 348 349 350 352 353 354 354 354 355 355 355 355 355 355 355 354
310 311 312 313 313 315 316 317 317 318 318 318 319 319 320 321 321 321 321 321 322 321 322 321 321 321 321 320 319 318 317 316 315 314 313 312 311 311 313 315 317 317 318 319 320 321 322 323 325 326 326 326 327 328 329 331 332 334 334 335 336 338 342 344 346 345 346 345 344 343 343 343 344 346 348 350 351 351 351 352 352 352 352 352 352
308 309 311 311 312 313 314 315 316 316 317 317 317 318 318 319 319 319 319 319 319 319 318 318 317 317 317 316 315 314 313 312 312 310 309 308 308 307 308 310 311 311 312 312 312 314 315 316 318 319 320 320 320 322 323 325 327 329 330 331 333 335 337 338 339 340 340 340 339 338 337 338 339 341 342 344 345 346 346 346 346 346 346 345 344
308 309 310 311 311 312 313 313 314 315 315 315 316 316 317 317 317 317 317 317 316 315 315 314 313 313 312 311 311 310 310 309 308 307 306 306 305 305 305 306 306 307 307 307 308 308 309 310 311 313 314 315 315 316 318 320 322 323 325 327 329 330 331 332 334 335 335 334 334 334 334 335 337 338 338 339 339 340 339 339 339 338 338 337 336
307 308 309 309 310 311 311 312 312 312 313 313 314 314 314 315 315 314 314 313 312 312 311 310 309 309 308 308 307 307 306 306 305 304 304 304 304 304 303 303 303 304 304 304 304 305 305 305 306 308 309 309 310 311 314 315 317 318 320 321 323 325 326 328 329 331 331 331 331 331 331 332 333 333 333 333 333 333 333 332 333 333 332 331 331
Wind_Speed
25 23 22 21 20 20 20 20 20 19 18 19 18 17 17 17 16 16 15 15 15 15 15 14 14 13 13 12 12 12 12 12 12 12 12 11 10 9 8 9 9 8 8 8 7 7 7 7 8 8 8 8 8 8 9 9 9 9 8 7 7 7 6 6 6 6 7 7 7 7 6 6 5 4 4 6 6 6 6 6 7 5 4 6 6
23 22 21 21 20 20 20 20 20 20 20 20 19 19 18 17 17 16 16 16 16 16 16 16 15 14 14 13 13 12 12 12 12 12 12 11 11 10 9 10 10 9 9 9 9 8 8 9 9 9 9 9 9 8 9 9 10 10 10 9 9 8 7 7 6 7 7 7 7 8 7 6 6 5 5 6 7 7 7 6 6 4 3 5 7
20 20 19 19 19 20 19 19 20 20 20 20 21 21 20 19 18 18 18 17 16 16 16 16 16 16 15 14 14 13 13 13 13 12 12 12 12 11 10 10 11 10 10 10 10 10 10 10 10 10 9 9 9 9 9 10 10 9 10 9 9 9 8 7 7 8 9 8 8 9 8 6 6 7 7 7 7 7 6 6 6 5 5 6 8
20 18 17 18 18 19 19 19 20 20 21 21 21 21 21 20 20 19 19 18 17 17 17 17 17 17 17 16 16 15 14 14 14 13 13 13 12 12 11 11 11 11 11 11 11 11 12 12 11 11 10 10 10 10 10 10 10 9 10 9 9 9 9 9 9 9 9 9 9 9 9 8 8 9 8 8 8 7 7 7 7 6 7 7 6
15 17 18 18 19 19 20 20 20 21 21 21 21 21 21 21 21 21 20 19 19 18 18 18 18 18 18 18 18 17 16 16 15 14 14 14 14 13 12 12 12 12 12 12 11 12 12 13 13 12 12 12 12 11 11 11 11 10 11 10 10 11 11 10 10 10 10 11 10 9 9 10 10 9 9 8 8 8 8 8 8 7 7 6 4
11 14 17 18 18 19 19 20 20 21 21 21 21 21 21 21 21 21 21 21 20 20 19 20 20 20 20 19 19 19 18 17 17 16 16 15 15 14 14 14 13 13 13 13 13 13 13 14 14 13 13 13 13 12 12 12 12 12 12 12 12 11 11 11 11 11 11 12 11 11 11 11 11 10 9 9 9 9 8 9 9 8 7 6 5
13 12 13 16 18 19 19 20 20 20 21 21 21 21 21 21 21 21 21 21 21 21 21 21 21 21 21 21 20 20 19 19 19 18 18 17 16 15 15 15 14 14 14 14 14 14 14 14 14 15 15 15 14 14 13 13 13 13 13 13 13 12 12 12 11 12 12 12 12 13 12 11 11 10 9 8 9 9 9 9 9 7 7 6 6
9 11 12 13 14 16 18 19 20 20 20 20 21 21 21 20 21 21 21 21 22 22 22 22 21 21 22 22 22 21 20 20 20 20 20 19 18 17 17 16 16 15 15 15 15 15 15 15 15 16 16 17 16 15 14 14 14 14 14 14 14 13 13 13 13 12 13 13 13 12 12 11 10 10 10 9 10 10 9 9 9 8 8 8 8
9 7 11 13 14 14 14 16 17 18 19 19 19 21 21 20 20 20 21 21 21 21 22 22 22 22 22 22 22 22 22 22 22 22 21 20 20 19 18 18 18 17 16 16 16 16 16 16 16 16 17 18 19 19 18 16 15 14 14 14 14 14 14 14 13 13 13 13 13 12 12 12 11 11 11 10 10 10 9 9 9 9 10 9 9
11 9 7 7 9 11 11 12 14 15 16 17 18 18 19 20 21 21 21 22 21 21 21 22 22 22 22 22 22 22 23 23 24 24 24 22 21 21 20 19 19 19 18 17 17 18 18 18 18 18 18 18 19 20 21 21 20 19 16 15 14 15 15 15 15 14 13 13 14 13 13 13 12 12 11 10 10 10 10 9 9 9 9 10 10
14 12 10 8 8 8 9 10 10 10 12 14 16 17 18 19 20 21 21 22 22 21 21 21 22 22 22 22 22 22 23 23 25 27 27 26 23 21 20 20 20 20 20 19 19 19 19 19 19 19 19 20 20 22 24 25 25 24 23 21 19 17 16 15 15 15 15 15 14 14 14 14 13 12 12 11 10 10 10 8 8 9 9 9 10
15 15 12 9 9 8 7 9 11 11 11 12 13 15 16 17 19 20 21 22 23 23 22 22 22 22 22 22 22 23 23 23 25 27 29 30 29 25 22 21 21 21 21 21 21 20 20 20 20 20 20 21 22 23 26 28 29 28 27 26 25 24 23 20 18 16 15 15 15 15 15 14 13 12 12 11 11 10 9 8 9 10 10 11 11
12 14 13 10 8 7 8 10 11 11 13 15 15 15 15 17 18 20 21 21 21 22 23 23 22 22 22 22 23 23 23 23 24 26 28 30 31 30 26 22 22 22 22 22 22 22 22 21 21 21 21 21 22 23 24 26 27 28 28 27 27 28 29 29 28 25 22 18 16 16 15 14 14 14 12 11 11 11 10 10 11 11 12 12 12
11 12 13 9 5 8 13 14 14 13 14 15 16 16 15 17 17 18 20 20 20 21 22 22 22 22 22 22 23 23 23 23 24 25 28 29 30 31 29 25 24 24 24 23 22 22 22 22 22 22 22 22 22 22 22 23 23 24 26 28 29 29 30 32 33 33 32 29 25 22 19 17 16 15 14 13 12 13 13 12 12 13 13 13 14
12 12 12 9 6 8 12 13 13 15 14 14 15 15 16 17 17 17 19 19 17 18 19 20 21 22 22 22 22 23 25 25 24 24 26 28 29 30 30 27 24 24 24 25 25 24 23 22 22 22 23 23 23 23 23 22 22 22 22 24 27 29 30 32 34 34 35 36 35 34 31 27 23 20 18 16 16 16 15 15 14 13 13 14 14
12 12 11 9 8 10 12 13 13 14 12 13 16 17 17 18 17 16 19 20 17 16 19 20 20 21 22 22 23 23 24 25 27 27 27 27 28 29 31 29 25 24 24 25 26 26 25 24 24 23 23 24 25 26 26 24 22 21 21 21 22 23 25 28 31 33 34 34 36 36 35 33 30 26 23 21 19 18 16 16 15 14 13 13 14
12 12 12 12 12 11 11 12 13 14 12 13 17 18 18 19 18 16 17 20 20 20 20 20 21 22 22 23 23 24 24 25 27 28 29 30 29 30 31 28 25 25 25 25 25 26 27 28 27 26 25 25 26 27 28 28 26 23 22 22 21 21 22 23 25 29 30 30 32 33 33 32 30 29 27 26 24 22 17 15 15 15 14 13 13
13 13 12 13 13 12 11 11 12 14 15 14 15 16 18 18 18 18 19 21 23 23 21 20 21 22 22 23 24 24 24 24 25 27 29 31 31 32 31 27 24 24 24 25 26 26 27 29 30 29 28 27 28 28 28 30 29 26 24 22 22 22 22 21 22 25 27 28 29 29 29 29 29 29 29 29 28 27 24 21 18 16 16 16 15
13 14 13 13 13 13 13 12 12 13 15 16 16 14 16 19 19 20 20 21 23 24 23 22 22 22 22 24 25 25 25 25 26 27 29 30 32 33 31 25 23 24 23 23 24 25 26 29 32 34 33 31 29 28 28 29 30 28 25 23 23 24 23 21 21 21 23 26 29 30 30 29 28 29 30 30 30 30 30 29 24 20 18 18 18
13 14 14 14 14 14 13 13 13 13 14 16 17 16 15 18 19 20 19 20 22 24 23 22 22 23 24 24 24 25 26 25 26 28 29 30 32 34 32 26 23 24 23 23 23 23 24 26 29 34 37 37 35 32 29 29 30 28 26 24 25 24 22 21 22 21 21 22 25 27 29 28 26 26 28 30 31 32 33 33 31 27 22 20 20
13 14 14 15 14 13 13 13 13 13 13 14 16 16 15 16 17 19 20 22 24 26 25 24 24 24 23 23 24 25 26 26 26 28 29 31 31 33 32 28 25 24 23 22 23 22 23 24 25 28 33 36 37 38 36 34 32 30 28 28 27 25 21 19 19 19 21 22 21 22 23 23 22 21 23 24 25 28 31 34 36 35 31 25 22
13 13 14 14 14 13 13 13 13 13 12 13 15 16 15 15 16 17 18 21 24 25 24 23 24 25 23 24 26 26 25 26 27 28 30 31 33 33 32 29 26 24 22 22 23 23 23 23 24 25 28 31 32 35 37 38 38 36 35 34 33 29 26 22 19 17 18 20 21 22 22 22 21 21 21 21 21 22 24 27 32 35 36 34 30
13 13 14 14 14 13 13 13 13 13 12 13 14 16 16 16 17 18 18 19 21 23 22 22 24 25 24 25 25 25 24 25 26 29 30 30 32 33 33 32 29 26 23 22 23 23 23 23 24 24 26 28 29 31 32 35 38 40 40 40 38 35 32 29 24 20 19 19 20 20 21 21 21 21 22 22 22 22 22 24 27 30 33 35 34
13 13 14 14 14 15 14 13 13 13 13 13 14 15 15 16 17 18 18 19 20 20 19 19 20 21 22 22 23 23 23 24 25 26 26 27 30 32 32 32 32 30 27 25 23 23 23 23 23 24 25 27 28 29 30 31 34 36 37 37 38 38 37 33 28 24 23 22 22 21 21 21 21 22 22 22 22 23 23 23 25 28 30 31 32
13 13 14 14 15 16 15 14 14 14 13 13 14 15 15 16 17 18 18 18 18 18 17 16 16 17 19 20 20 19 19 21 24 24 23 24 27 29 30 31 32 31 30 28 26 26 25 23 22 22 23 25 26 27 29 30 31 32 33 33 34 36 38 36 30 25 24 24 23 23 23 23 23 23 24 23 22 22 22 22 22 23 25 26 27
14 14 14 15 15 15 16 16 15 15 14 14 14 15 16 17 17 17 18 18 17 16 16 15 14 15 16 16 16 19 22 23 25 26 24 22 22 22 24 27 30 32 34 34 32 30 29 27 26 24 22 22 22 24 27 29 30 31 31 31 32 35 37 35 29 26 26 25 23 23 24 23 23 24 24 24 24 23 22 22 22 21 22 23 23
15 15 15 15 15 15 16 17 17 17 16 16 16 15 15 15 15 15 16 17 16 16 16 16 14 14 14 12 13 19 24 23 21 22 23 22 19 17 16 18 23 28 33 35 36 35 32 31 31 31 29 26 25 25 26 27 28 29 30 32 33 35 36 33 28 26 25 24 24 24 24 23 22 23 23 24 26 25 24 23 22 22 22 22 22
16 16 16 16 16 16 16 17 18 18 18 17 15 14 14 14 15 15 16 16 15 15 15 15 14 13 12 11 15 21 23 20 18 21 22 22 18 12 9 10 13 16 21 25 30 35 35 31 29 32 33 32 30 29 27 24 24 26 28 30 33 35 36 33 29 27 25 24 24 24 23 23 24 23 23 23 24 24 24 24 24 24 22 21 21
16 17 17 17 16 16 16 16 16 17 17 16 15 14 16 16 17 18 19 18 19 19 20 21 19 17 15 15 18 19 18 15 15 16 17 17 15 12 11 10 9 9 12 15 19 27 30 26 23 26 30 30 30 29 27 26 25 25 26 26 28 29 31 30 29 28 27 25 24 23 22 23 24 23 24 24 24 23 24 25 26 25 23 22 22
17 17 17 17 16 16 16 16 16 15 15 16 17 17 18 19 19 21 23 25 26 27 27 27 26 23 23 24 25 23 21 20 20 19 19 20 19 19 21 19 16 14 14 14 17 22 24 20 19 22 27 29 29 28 27 26 26 26 27 28 28 27 27 27 27 27 27 27 26 25 23 24 24 24 25 25 25 24 24 26 27 27 25 23 23
18 18 17 17 17 17 17 17 17 17 17 18 19 20 20 21 21 23 25 26 26 25 23 23 22 21 24 29 30 29 29 29 30 30 30 30 29 29 28 25 20 17 16 17 21 25 24 21 20 23 28 30 29 27 27 27 27 27 28 28 28 28 28 28 26 25 24 26 26 26 25 25 25 25 26 26 25 25 24 25 26 27 26 26 25
19 19 19 19 19 18 18 18 18 18 19 19 19 20 21 21 22 22 21 21 22 21 21 20 19 19 21 26 29 30 30 29 29 30 30 29 27 26 25 23 20 18 18 21 25 27 25 23 22 24 28 30 30 29 29 29 29 29 30 28 27 27 28 29 28 26 25 24 24 25 26 27 27 27 28 27 26 26 25 25 25 25 26 27 26
21 21 21 21 20 20 20 19 19 19 19 18 18 19 19 20 21 21 20 20 21 22 22 21 21 21 21 22 24 27 27 27 27 28 27 25 22 19 19 20 19 19 20 24 29 29 27 25 25 25 26 29 31 31 30 29 29 29 29 29 28 27 26 26 28 29 28 26 26 25 25 26 26 27 28 28 27 26 26 26 25 25 26 26 26
22 23 23 23 23 22 22 21 20 20 19 19 19 19 19 20 21 21 21 21 20 21 21 21 21 21 21 21 22 23 24 24 24 25 24 22 20 19 19 19 17 18 22 26 29 28 26 27 28 26 25 26 28 28 29 29 27 27 28 29 29 27 25 23 25 28 28 27 26 26 25 25 25 25 26 26 27 27 27 27 28 27 27 27 26
24 24 25 25 25 25 24 23 22 22 21 20 20 20 21 21 21 21 21 20 20 20 21 21 20 20 21 22 23 23 23 22 22 23 22 21 21 21 18 16 17 21 24 27 28 27 26 30 32 29 27 27 27 28 29 29 28 27 28 28 28 28 25 23 23 25 26 25 25 24 25 25 25 26 26 26 27 27 28 28 28 28 28 27 26
26 25 25 25 24 24 25 25 24 22 21 21 21 21 21 21 21 21 21 21 21 21 21 21 20 19 21 22 23 22 21 20 19 20 20 21 23 22 18 16 19 23 27 31 31 28 26 29 31 28 27 30 31 31 30 30 31 31 29 27 28 27 25 24 25 25 24 24 26 27 27 26 26 25 25 26 27 28 28 28 28 28 29 29 28
27 26 25 24 23 23 23 23 23 22 22 22 22 22 22 22 21 21 21 22 22 21 21 21 20 20 19 19 19 19 18 17 16 17 19 20 22 23 21 19 20 22 27 33 34 29 25 26 29 28 26 28 31 30 29 30 32 30 31 32 30 24 23 28 30 27 22 22 24 26 27 27 26 26 25 25 26 27 29 30 29 29 30 31 30
27 27 26 25 25 24 24 24 24 23 23 23 23 23 23 22 22 22 22 22 22 21 21 20 20 20 18 16 15 15 15 14 12 15 18 20 22 23 23 21 20 22 25 29 31 29 26 27 29 30 29 30 32 31 31 30 29 28 30 28 18 13 19 30 33 30 28 26 25 25 26 26 26 26 27 26 27 28 29 29 28 27 28 28 27
26 27 27 27 27 27 28 28 27 26 25 24 24 24 23 23 22 22 22 22 21 21 21 20 19 19 18 16 14 14 14 13 12 12 14 15 17 19 20 19 19 20 23 25 27 28 28 27 27 29 30 32 34 34 33 31 29 30 29 20 12 12 22 29 29 29 31 29 26 26 27 27 26 27 27 28 28 29 27 25 25 25 26 25 24
25 26 25 25 26 27 28 28 29 28 27 26 25 25 25 24 23 23 23 22 21 21 20 20 20 18 16 15 14 14 15 15 15 15 15 15 15 15 16 17 18 19 21 22 24 25 25 25 26 29 31 31 29 27 26 27 28 31 27 16 15 20 31 32 28 27 27 27 26 27 28 29 28 28 29 28 28 27 25 23 24 26 27 26 25
25 25 26 26 26 27 27 27 27 27 27 26 26 26 25 25 24 24 23 22 22 21 21 21 21 19 18 16 16 17 17 17 18 18 17 17 17 17 18 19 19 20 20 21 22 22 23 24 25 26 29 30 27 24 24 26 30 32 23 14 14 21 30 31 29 27 25 26 28 28 28 29 29 29 28 27 25 25 24 23 24 26 28 29 29
25 26 27 27 26 26 26 27 26 26 26 26 26 26 25 24 24 23 23 22 22 22 22 23 22 21 20 19 19 19 19 19 19 19 19 18 18 18 19 20 20 21 21 21 21 20 20 22 22 19 19 21 22 23 25 27 29 27 18 11 15 23 28 27 26 25 25 27 29 29 28 29 29 29 28 26 25 26 26 26 26 26 26 29 32
26 28 28 27 26 26 26 26 25 26 26 26 26 26 25 24 24 23 22 22 22 22 23 23 23 22 22 20 19 18 18 18 18 18 18 18 18 17 19 20 20 19 18 18 20 20 20 21 22 19 17 17 18 19 22 24 24 22 17 10 13 21 26 26 26 27 27 26 27 28 28 27 26 27 26 25 26 27 27 27 29 29 29 31 32
25 26 26 25 25 25 26 26 26 26 25 25 25 25 24 24 24 23 22 22 21 20 21 23 23 23 22 20 17 17 16 16 16 16 16 16 15 16 17 18 15 14 15 17 20 22 23 24 24 24 24 24 24 23 24 24 24 23 21 16 12 15 19 21 23 25 24 21 21 23 24 24 25 26 25 24 26 27 26 26 27 28 31 32 29
23 23 23 22 21 21 24 27 28 27 26 24 24 24 24 24 24 23 22 21 20 20 21 23 24 24 22 20 18 18 17 16 16 16 16 17 17 18 21 21 20 19 21 21 22 24 26 26 27 26 26 26 28 28 28 28 28 27 26 25 22 19 18 17 17 16 15 15 16 18 19 20 23 25 24 23 24 24 24 25 25 25 28 29 28
22 22 23 23 20 19 20 23 25 26 27 25 22 21 21 22 22 22 20 20 20 20 21 22 23 23 22 21 21 20 19 17 16 15 16 16 16 18 22 25 25 25 25 24 24 25 26 26 26 27 27 27 28 29 29 30 30 29 28 28 28 27 26 26 24 21 19 17 18 19 19 20 22 23 24 25 25 23 23 24 24 24 25 27 28
22 22 22 22 20 19 20 21 22 24 26 25 21 19 18 19 19 19 19 18 19 19 19 21 23 23 22 21 20 18 17 16 15 14 13 13 14 16 19 22 23 23 24 24 24 24 24 23 24 24 25 25 26 27 27 28 28 28 27 27 27 27 29 30 31 31 29 27 26 26 25 24 24 24 24 25 26 26 25 25 26 27 28 28 29
22 22 22 21 21 20 20 19 19 20 21 20 20 19 18 17 17 18 19 19 18 18 18 20 22 22 21 19 17 16 15 14 13 12 10 9 11 13 15 17 18 18 18 18 18 18 19 19 19 19 19 20 21 22 23 24 24 24 24 24 25 26 27 28 30 31 31 30 30 29 27 25 25 26 25 25 25 25 25 25 26 28 27 26 25
22 22 21 21 20 20 19 19 19 18 18 17 17 17 16 16 17 18 18 18 19 20 20 20 19 19 18 16 15 14 13 11 10 9 9 8 10 11 11 12 13 13 12 12 12 12 13 13 13 13 14 15 15 16 17 18 19 20 21 22 23 24 24 24 25 26 27 27 27 25 22 20 21 23 24 25 24 22 21 19 19 18 18 16 15
20 20 20 19 19 19 18 17 17 17 17 16 16 16 17 17 18 17 16 16 17 18 18 18 17 16 15 14 13 12 11 9 8 7 7 7 7 7 7 6 7 7 8 8 7 7 7 6 6 7 7 8 9 11 11 12 12 14 15 17 19 20 20 21 21 22 21 20 19 17 16 16 17 17 17 17 17 15 14 12 11 10 9 8 7
18 18 17 17 16 16 14 14 15 16 16 17 16 17 17 17 15 14 13 14 15 15 16 16 15 14 12 11 10 9 8 7 6 5 5 5 5 5 4 4 3 3 3 4 3 3 2 2 2 1 2 3 4 4 5 5 6 8 9 10 12 13 14 15 16 16 15 13 12 12 13 13 13 11 10 10 10 9 9 9 8 9 9 9 10
Wind_Direction
188 186 190 191 190 191 191 192 195 197 199 201 202 201 202 203 204 205 204 204 203 201 201 202 201 201 202 203 204 203 204 207 208 206 207 210 214 217 209 204 211 216 220 225 225 223 225 227 229 229 227 229 231 236 237 226 222 231 233 230 236 239 233 242 262 277 287 295 294 294 301 310 306 292 301 307 302 316 327 311 307 312 274 259 274
186 185 188 191 191 192 193 192 193 197 199 200 202 203 202 203 204 205 205 204 205 204 203 204 205 205 205 204 205 203 201 205 209 208 209 210 212 216 213 207 214 219 219 224 228 228 228 229 232 232 230 230 229 232 237 231 221 221 225 226 232 239 234 236 259 276 283 287 287 287 288 287 288 290 297 300 299 302 305 304 301 305 294 255 250
187 183 187 191 194 194 195 196 195 197 201 201 203 203 202 203 203 205 207 206 205 206 206 206 206 206 208 207 206 206 202 203 209 209 210 212 212 215 217 214 216 222 223 224 227 228 229 231 233 232 230 230 230 233 236 238 237 232 231 231 234 241 241 237 245 260 273 280 282 284 285 285 287 290 291 289 289 289 285 292 296 290 298 278 242
186 183 189 191 195 197 197 199 200 201 204 204 204 204 203 203 203 205 209 208 206 206 206 208 207 205 208 209 207 208 206 205 208 211 211 212 213 214 216 217 219 221 225 227 228 230 231 232 234 233 232 232 231 232 233 236 240 240 241 242 242 246 250 247 244 247 262 273 273 277 284 288 285 284 286 284 282 281 275 282 290 277 290 300 250
194 188 195 197 197 200 201 203 203 204 207 208 207 206 205 204 203 205 209 211 209 206 204 206 207 206 208 209 208 208 209 209 210 213 214 213 213 215 216 217 220 221 224 226 227 230 232 235 236 233 232 234 232 232 232 233 236 236 237 239 239 242 246 248 248 246 252 263 269 273 274 275 276 274 275 276 278 281 275 274 279 270 276 295 267
232 204 201 203 201 201 203 206 207 206 208 211 211 209 208 206 204 203 207 211 211 208 205 204 206 208 208 209 210 210 210 211 212 214 217 216 214 217 219 219 221 222 224 226 227 229 231 234 236 235 233 234 234 233 232 233 236 235 235 236 237 239 241 243 246 247 250 258 265 269 268 267 269 268 265 266 269 278 283 280 277 266 262 277 282
255 231 212 208 206 206 205 207 210 210 210 212 214 214 212 210 207 204 205 209 211 211 208 204 205 207 208 209 210 211 212 213 215 215 217 219 218 218 220 221 222 224 226 228 228 230 232 233 235 234 234 235 235 235 233 233 235 235 236 237 238 240 242 242 243 244 250 255 258 262 265 263 263 263 263 262 260 267 275 276 274 267 261 266 277
280 251 236 227 216 211 209 208 209 211 212 213 215 217 218 216 213 208 205 206 210 213 211 208 206 206 208 209 210 211 212 213 215 216 217 220 220 220 221 223 225 226 227 230 232 233 234 235 235 234 233 233 234 235 234 233 235 236 235 235 237 239 241 244 244 244 247 253 256 259 263 264 264 265 268 265 260 262 266 267 269 273 274 270 270
335 284 250 244 236 226 220 216 212 210 212 214 215 218 221 221 219 215 212 210 210 213 215 212 209 208 209 210 210 212 213 214 215 215 215 217 220 222 222 224 227 230 231 232 233 235 237 239 240 238 235 232 231 232 234 233 234 236 236 235 235 236 239 242 244 246 247 251 255 258 260 262 260 258 261 259 256 260 263 266 271 275 279 278 277
338 326 304 287 273 258 245 236 223 213 213 216 216 219 222 223 224 222 219 217 214 215 218 217 214 212 211 212 213 213 216 218 217 215 213 214 217 222 225 226 228 231 233 235 236 236 238 240 242 243 240 237 235 234 236 236 235 233 233 234 234 234 237 240 240 243 245 248 253 255 256 258 257 256 259 259 260 263 260 259 266 274 279 281 282
334 333 336 343 335 308 283 282 276 250 233 224 218 220 224 225 227 227 224 223 221 219 221 222 221 218 216 216 217 218 221 222 219 216 214 214 215 219 225 228 230 231 233 235 237 238 239 240 242 243 241 238 237 239 241 243 242 239 237 236 235 233 235 239 241 243 244 246 250 253 255 258 260 262 267 270 272 274 271 266 268 273 278 278 279
344 346 345 343 339 321 292 302 306 282 263 252 235 229 230 229 229 229 226 224 223 221 222 224 226 227 226 223 222 223 225 226 224 220 218 218 219 221 224 228 230 232 233 235 236 238 239 240 241 242 241 237 234 236 241 246 248 247 245 242 240 238 236 236 238 241 243 247 250 251 254 258 261 260 262 267 274 279 280 276 269 267 268 270 273
357 359 2 359 338 301 275 288 298 279 263 260 252 245 240 236 235 233 229 225 223 223 223 224 226 228 231 232 231 230 230 228 225 223 221 222 224 225 227 230 233 234 235 235 236 237 238 239 240 241 243 241 234 230 234 242 248 250 249 246 242 241 239 237 238 239 242 246 251 252 252 254 259 259 258 261 267 269 271 268 263 262 262 263 268
15 8 4 4 337 288 284 291 293 285 273 268 265 263 260 253 247 244 240 232 225 224 224 225 226 227 229 233 234 235 235 233 229 225 223 225 227 228 228 231 235 238 238 237 238 238 237 237 239 239 241 242 238 230 227 232 240 246 248 245 242 241 241 240 240 239 240 242 244 247 248 248 251 252 253 255 253 251 255 258 259 259 258 261 266
24 15 5 3 350 319 313 309 298 289 284 278 272 271 273 269 264 265 265 257 242 233 232 229 228 229 229 229 232 234 235 235 234 231 227 226 227 228 228 230 235 238 238 238 238 239 238 237 237 238 238 238 237 233 229 228 230 235 240 242 240 240 241 242 243 242 240 240 241 244 246 246 248 249 249 250 249 248 249 252 256 259 260 263 265
20 16 10 6 358 342 335 331 319 303 290 275 263 259 260 258 256 266 275 270 260 248 241 235 230 229 230 230 231 234 234 233 233 233 232 230 228 227 226 228 232 236 237 236 236 236 237 236 236 237 237 237 236 234 232 230 229 231 233 235 236 236 237 242 245 246 244 242 242 245 247 248 248 248 248 246 246 247 248 248 249 250 252 256 260
12 7 5 3 360 352 341 335 328 316 301 283 269 265 263 255 246 244 248 248 247 243 241 241 236 231 229 229 230 233 235 234 231 231 231 230 228 226 224 224 227 233 235 236 235 235 234 234 234 236 237 237 237 235 233 231 231 233 236 237 238 239 239 241 245 247 248 247 246 247 249 250 249 247 245 244 243 242 241 242 241 241 244 248 253
3 359 358 357 354 349 342 337 332 323 313 303 287 272 266 262 254 247 242 242 244 242 241 244 243 237 233 231 229 231 234 234 232 231 231 231 230 227 224 222 225 230 233 234 234 234 235 234 234 234 235 236 236 236 236 234 232 234 238 242 243 243 243 243 246 246 246 248 249 249 249 250 250 246 243 242 242 240 238 239 240 243 248 249 251
355 350 350 350 350 347 342 339 337 329 321 318 313 295 275 266 258 252 249 246 244 244 243 242 241 239 238 236 233 232 233 234 233 231 231 230 230 229 224 222 225 230 232 234 234 233 235 236 235 235 236 237 236 236 236 235 233 233 237 243 246 247 245 244 247 248 242 240 242 244 245 246 247 246 245 244 242 241 239 238 239 243 247 249 250
347 341 341 343 344 343 340 340 340 334 325 319 319 314 297 278 262 252 250 249 249 248 245 242 242 241 239 240 238 236 235 235 234 232 231 230 230 228 224 222 225 229 231 234 235 235 235 235 236 237 238 238 238 236 236 236 234 233 235 239 244 247 248 247 248 250 248 241 237 237 239 242 243 244 246 245 243 242 241 240 239 239 240 245 248
337 334 334 335 333 331 331 335 335 332 329 322 316 314 307 290 272 261 257 258 258 256 251 249 249 247 244 244 244 242 242 241 239 237 233 231 231 228 223 221 225 229 232 235 237 238 237 236 237 239 240 242 241 239 238 238 236 234 234 237 241 245 249 252 252 252 252 249 244 238 236 236 236 238 241 242 240 240 241 241 242 240 238 239 243
329 327 325 324 323 323 325 327 325 322 324 324 320 316 309 297 285 276 268 266 265 263 262 260 257 255 255 254 251 248 248 248 248 247 240 235 233 230 226 224 225 227 231 235 237 239 240 240 240 241 242 243 244 243 241 240 239 238 237 239 242 244 245 250 255 257 255 252 250 247 244 241 239 239 241 241 239 237 236 237 240 242 240 239 240
322 319 317 315 316 317 317 318 317 314 313 314 313 311 309 302 293 284 275 270 268 266 264 263 260 260 262 261 257 256 256 255 254 254 250 242 235 232 231 229 227 227 232 239 241 242 243 243 244 246 245 245 245 245 244 241 240 241 242 243 244 244 244 246 251 255 256 255 254 252 250 246 245 244 243 243 242 242 240 235 235 237 240 241 241
313 309 308 307 308 310 310 310 309 307 307 305 299 296 298 297 290 282 274 269 268 266 263 261 260 260 262 262 262 262 264 265 265 265 264 257 247 240 237 235 231 228 232 240 246 248 249 251 251 249 248 248 248 248 246 244 242 243 244 246 246 246 245 245 246 247 249 250 250 250 248 245 244 245 245 245 245 246 247 244 238 236 238 241 242
306 304 303 302 301 303 303 302 300 299 297 296 291 290 291 288 284 282 278 274 271 269 267 265 263 263 265 267 270 274 279 285 286 282 273 263 253 245 240 237 234 233 234 240 247 251 254 259 262 258 252 249 248 249 248 246 245 245 246 246 247 246 244 243 242 242 243 243 243 244 244 244 244 244 245 247 248 248 249 249 245 239 235 237 239
300 298 296 295 295 297 298 298 297 296 293 290 286 283 280 274 270 272 275 275 275 273 273 271 266 267 269 271 278 285 284 281 279 271 263 259 255 248 244 242 239 237 238 239 243 248 251 255 261 264 263 257 251 248 248 247 247 246 244 243 243 243 242 241 237 236 238 239 239 240 242 242 243 243 244 244 245 245 245 244 245 243 237 234 235
297 295 293 292 291 292 293 293 293 292 290 285 280 274 272 272 271 270 271 274 275 274 273 271 266 266 267 267 276 279 273 269 272 271 269 269 263 253 252 254 248 244 243 242 244 246 248 251 257 261 264 265 262 256 254 252 248 245 243 241 240 240 240 238 234 233 235 236 237 240 242 242 242 242 240 239 239 239 239 239 240 240 238 236 236
295 293 292 289 287 285 283 282 283 284 283 281 277 275 277 280 282 281 280 284 288 293 296 293 285 281 280 275 270 268 265 268 276 275 270 268 265 260 262 264 259 257 256 255 254 250 247 250 257 260 259 260 260 257 253 248 242 240 241 240 240 241 240 237 234 234 233 234 236 238 239 239 240 240 239 238 236 234 233 234 236 235 233 234 236
294 292 290 287 283 281 279 276 275 275 276 277 277 277 276 275 276 277 279 281 286 295 305 306 301 301 302 293 280 273 271 273 272 267 263 265 270 278 282 279 276 279 280 280 272 258 248 245 251 256 255 253 251 249 246 241 238 235 233 232 235 237 234 230 228 228 227 228 231 233 233 235 236 237 239 239 238 235 232 231 233 233 231 232 235
294 291 289 286 285 284 284 282 280 280 280 282 284 283 280 276 275 275 277 279 281 283 288 291 292 293 292 286 279 276 276 274 270 268 269 270 271 278 285 286 284 281 281 280 270 256 245 238 242 251 254 251 246 242 239 237 234 231 229 229 232 235 233 227 224 224 222 221 224 227 230 233 235 236 238 238 238 237 235 232 231 231 231 232 235
294 292 289 287 287 287 286 284 284 283 282 282 284 285 285 283 280 277 278 284 288 288 287 285 285 285 284 282 281 279 278 276 274 273 273 273 274 278 282 283 281 279 278 272 261 252 242 235 235 243 249 250 247 242 239 235 230 231 236 237 234 234 234 232 229 226 222 220 221 222 225 229 232 233 235 236 238 237 237 235 231 230 232 235 239
290 288 286 285 285 283 280 278 278 277 276 276 277 280 282 283 283 282 282 285 289 291 289 286 286 286 285 285 286 284 282 281 281 279 276 275 275 275 276 278 281 283 281 269 257 247 237 231 231 235 242 248 248 246 245 242 238 239 243 243 237 233 233 232 230 228 227 226 224 222 222 225 227 230 232 233 236 236 237 237 233 230 233 237 239
287 287 286 285 284 281 278 276 274 272 271 272 274 276 279 281 285 289 290 289 288 288 286 284 286 288 287 285 284 284 283 283 283 281 277 274 270 267 268 269 271 273 270 257 244 234 228 227 230 234 239 245 249 249 250 249 248 246 246 244 240 237 234 230 226 224 225 229 229 227 226 225 225 228 231 232 233 234 235 237 237 236 237 238 238
285 284 284 284 283 281 278 275 274 273 271 270 272 274 276 279 283 287 290 290 291 291 290 288 288 289 289 289 289 288 286 285 285 283 278 271 264 263 265 263 258 257 258 248 234 225 224 230 233 234 236 241 245 247 248 248 248 247 245 244 244 241 237 231 225 221 220 224 228 230 232 231 230 230 231 231 232 232 232 234 235 236 238 239 239
280 279 280 279 278 277 275 273 273 272 271 270 270 271 273 275 276 279 283 286 289 290 290 290 291 291 291 291 291 290 289 287 287 286 282 272 265 263 261 252 241 242 248 244 230 220 225 235 238 238 238 238 240 242 243 244 244 242 241 242 242 241 238 234 232 228 224 224 227 230 233 234 234 234 234 234 234 235 234 234 234 235 236 238 239
276 276 276 276 275 274 274 273 271 268 266 267 268 268 270 271 273 275 278 279 280 282 284 286 289 289 289 289 289 290 291 290 286 284 281 275 269 262 248 231 227 234 242 243 235 226 227 236 241 242 242 241 240 238 236 237 239 239 236 235 235 235 234 233 236 236 232 229 231 233 234 235 236 237 238 238 237 238 239 237 235 234 234 233 234
275 274 274 274 275 274 273 271 269 267 266 266 266 267 268 269 270 273 274 273 274 276 280 285 288 288 288 288 287 286 288 289 285 278 272 268 265 258 244 230 224 227 235 240 237 231 230 235 239 241 242 241 239 234 230 232 235 234 232 232 230 226 224 229 234 237 236 235 237 236 236 237 239 239 240 241 241 241 241 241 239 238 236 235 234
273 273 273 273 273 274 275 274 272 269 268 266 264 263 264 266 267 267 267 267 269 271 273 277 281 283 285 288 289 289 291 291 283 270 261 256 254 250 243 235 227 224 229 236 237 233 232 237 239 240 240 241 240 236 232 232 232 232 233 232 220 202 216 229 235 239 239 238 239 240 240 239 238 236 237 239 242 244 245 246 246 245 242 240 236
274 273 274 273 270 268 269 270 271 271 270 269 267 264 263 264 267 267 266 265 266 267 269 271 273 276 281 286 289 292 294 292 288 281 273 264 255 246 238 232 229 228 230 235 236 233 233 237 240 240 239 241 242 242 241 239 236 237 238 226 188 196 229 236 236 238 238 237 237 240 242 241 238 237 236 237 241 245 246 247 248 249 249 246 238
276 274 273 271 268 266 264 262 263 264 265 265 266 265 263 263 263 264 265 265 264 265 266 268 271 274 278 284 290 293 294 291 289 289 287 283 275 264 251 243 241 240 239 240 240 238 237 239 243 244 246 247 249 252 254 252 249 248 243 215 188 220 239 241 236 234 234 235 237 240 242 242 241 241 240 238 240 242 242 241 242 246 248 247 243
276 273 271 269 267 266 264 260 257 256 256 258 259 260 260 260 260 261 263 263 265 267 268 268 271 274 276 280 286 289 287 283 281 279 277 275 274 271 267 261 255 250 247 246 245 244 244 247 252 257 260 261 261 262 264 263 262 260 248 204 194 231 243 240 236 234 230 231 235 237 239 240 241 242 242 242 241 241 239 237 238 240 241 244 245
275 270 268 267 264 262 261 260 258 255 254 255 256 257 258 259 259 260 262 262 263 266 268 269 273 276 278 279 280 281 279 276 274 273 272 271 270 267 266 265 262 258 256 254 251 251 253 255 259 264 267 266 262 259 259 260 264 267 258 215 215 242 247 240 234 234 232 232 234 235 237 240 241 244 246 246 244 243 239 236 236 235 235 239 241
286 277 269 265 264 264 262 262 261 258 257 257 258 259 261 262 261 261 262 263 264 265 267 270 273 276 278 280 280 279 276 272 271 271 269 269 270 269 269 269 266 260 255 253 252 255 260 264 266 266 265 263 259 254 251 250 254 265 270 248 228 242 249 247 243 242 241 238 236 236 238 241 244 248 249 245 244 245 243 238 236 235 234 236 238
298 290 280 273 270 269 270 269 266 261 259 260 263 264 265 264 264 264 264 265 268 269 270 272 272 274 277 281 283 283 280 277 278 279 278 278 280 280 281 284 282 270 261 259 260 262 265 269 272 272 269 268 267 265 264 264 263 268 274 272 252 242 247 251 253 253 251 249 247 246 245 245 247 250 251 247 245 247 245 241 237 234 232 233 234
294 292 290 286 280 276 278 280 277 270 263 259 260 263 265 263 264 266 266 265 267 268 269 269 270 272 275 279 281 285 286 287 289 288 285 287 290 288 287 289 290 284 278 275 272 269 268 269 271 272 272 272 271 270 271 274 275 275 276 277 273 266 258 255 258 260 258 256 258 259 259 258 256 254 253 253 251 249 245 244 242 237 233 233 234
293 292 292 290 286 282 281 282 281 278 273 266 261 261 263 264 265 267 267 267 266 266 267 270 272 274 275 277 279 283 287 289 292 290 286 286 290 289 285 283 281 279 277 275 272 272 271 270 270 271 272 273 274 273 273 274 275 277 277 276 274 272 268 265 264 266 266 266 266 266 267 269 268 265 263 264 263 259 252 249 247 244 241 240 240
295 293 290 288 287 286 284 282 282 282 279 273 267 263 264 266 267 268 270 271 273 272 271 271 272 272 273 275 278 282 285 288 290 291 288 287 286 285 283 282 279 276 274 272 270 270 269 268 268 270 272 273 274 274 275 276 276 276 277 276 274 272 269 268 267 268 269 270 270 269 268 267 267 268 267 267 266 264 259 256 255 253 251 248 245
293 291 289 287 286 286 285 285 284 280 277 273 270 268 268 270 272 272 271 272 275 276 275 272 269 269 272 275 277 280 284 288 290 290 290 290 289 287 284 282 282 281 280 277 275 272 270 269 269 270 272 273 274 275 276 277 278 278 279 278 277 274 272 271 270 270 269 268 268 268 268 267 266 266 266 265 265 266 263 260 258 255 251 248 246
288 285 284 284 284 284 284 286 287 285 282 280 277 275 273 273 273 272 271 270 272 274 275 274 272 272 274 276 278 280 283 287 290 292 292 292 294 296 293 286 282 282 282 282 281 277 273 271 270 270 272 276 277 277 276 277 279 280 281 281 281 281 280 278 274 271 269 269 268 269 269 268 266 265 263 261 262 263 260 257 254 250 248 248 249
291 288 285 284 284 284 285 288 291 292 289 284 279 276 275 273 272 273 275 276 275 275 274 273 273 274 275 276 279 282 285 287 289 293 298 300 302 304 306 300 292 284 279 278 281 282 279 278 277 276 280 283 283 283 283 283 283 284 284 284 284 284 282 279 275 272 270 269 266 263 260 257 256 256 253 250 250 248 244 240 237 231 227 225 219
298 296 294 293 293 293 293 296 299 297 292 287 282 280 279 278 277 277 278 277 275 274 274 274 274 275 276 277 279 280 284 288 290 294 301 307 314 317 319 323 323 310 289 283 286 287 291 314 337 338 323 317 310 307 308 307 306 306 303 300 299 297 292 286 282 277 271 262 252 246 244 240 237 235 229 224 221 214 203 196 188 178 171 162 151